Terminal Aerodrome Forecast
Issued by NWS

Home | Current Version | Previous Version | Text Only | Print | Product List | Glossary On
Versions: 1 2 3 4 5 6 7 8 9 10 11 12 13
000
FTAK31 PAJN 211700
TAFAGY
TAF
PAGY 211731Z 2118/2218 VRB05KT P6SM VCSH OVC040
     FM220100 VRB05KT P6SM VCSH OVC040
      AMD LTD TO CLD VIS AND WIND=

USA.gov is the U.S. government's official web portal to all federal, state and local government web resources and services.